Location: Dover
(48.8500°N, 53.9833°W)
Time: 16:58:57
(UTC+00:00)

Cosmos 2344 - Pass Details

Date: 14 November 2025
Orbit: 1197 x 3045 km, 63.3° (Epoch: 09 December)

Event Time Altitude Azimuth Distance (km) Brightness Sun altitude
Rises 21:09:47 0° 309° (NW) 4,118 6.8 -12.1°
Reaches altitude 10° 21:12:37 10° 318° (NW) 3,199 6.1 -12.5°
Maximum altitude 21:19:34 39° 27° (NNE) 1,971 4.3 -13.7°
Enters shadow 21:25:40 18° 86° (E) 3,188 5.0 -14.6°
